Meteo Giornale » Osservazioni meteo Stati Uniti (USA) » Fullerton

ore: 09:53 - Osservazioni Meteo Fullerton
Lat. 33° 52' N Lon. 117° 59' W Alt. 29 metri s.l.m.

nuvoloso

26 °C

Nuvoloso

Temp. 24 Ore

22 °C

31 °C

Nord

5.5 Km/h

Dew point 18 °C

Umidità 61 %

Visibilità  10 Km

Il sole sorge alle ore 06:25

Il sole tramonta alle ore 19:19

Data e Ora Cielo e Fenomeni T °C DP °C Um. % Pres. hPa Vis. km Vento km/h
Oggi h: 09:53 nuvoloso Nuvoloso 26 18 61 1013 10 N 5.5
Oggi h: 09:50 nuvoloso Nuvoloso 26 18 61 1013 10 N 7.4
Oggi h: 09:00 molto_nuvoloso Molto Nuvoloso 24 18 69 1013 10 N 7.4
Oggi h: 08:53 nuvoloso Nuvoloso 23 18 73 1013 10 N 0
Oggi h: 07:53 coperto Coperto 23 18 73 1012 10 N 5.5
Oggi h: 06:53 molto_nuvoloso Molto Nuvoloso 22 19 83 1012 14 N 0
Oggi h: 05:53 sereno Sereno 22 18 78 1011 10 N 0
Oggi h: 04:53 sereno Sereno 22 19 83 1011 10 N 0
Oggi h: 04:18 nuvoloso Nuvoloso 22 19 83 1011 10 N 5.5
Oggi h: 03:53 molto_nuvoloso Molto Nuvoloso 22 19 83 1011 10 N 0
Oggi h: 03:16 nuvoloso Nuvoloso 22 19 83 1011 10 N 5.5
Oggi h: 02:53 coperto Coperto 23 19 78 1011 10 S/SO 7.4
Oggi h: 02:11 molto_nuvoloso Molto Nuvoloso 23 17 68 1011 10 N 5.5
Oggi h: 01:53 nuvoloso Nuvoloso 23 16 64 1011 10 N 0
Oggi h: 01:39 molto_nuvoloso Molto Nuvoloso 23 16 64 1011 10 N 0
Oggi h: 00:53 sereno Sereno 23 16 64 1011 10 N 0
Ieri h: 23:53 sereno Sereno 23 16 64 1011 10 N 0
Ieri h: 22:53 sereno Sereno 23 16 64 1011 10 N 0
Ieri h: 21:53 sereno Sereno 24 16 60 1011 10 SO 7.4
Ieri h: 20:53 sereno Sereno 24 17 64 1010 10 N 5.5
Ieri h: 19:53 sereno Sereno 25 18 65 1010 10 O 9.3
Ieri h: 18:53 sereno Sereno 26 18 61 1009 10 S/SO 11.1
Ieri h: 17:53 sereno Sereno 28 19 58 1009 10 SO 14.8
Ieri h: 16:53 sereno Sereno 30 18 48 1009 10 SO 9.3
Ieri h: 15:53 sereno Sereno 31 18 45 1009 10 SO 14.8
Ieri h: 14:53 sereno Sereno 31 19 48 1010 10 S/SO 14.8
Ieri h: 13:53 sereno Sereno 31 19 48 1011 10 S/SO 18.5
Ieri h: 12:53 sereno Sereno 31 20 52 1011 10 S/SO 11.1
Ieri h: 11:53 sereno Sereno 31 21 55 1011 10 N 11.1
Ieri h: 10:53 sereno Sereno 29 19 54 1011 10 N 5.5